Year,Month,Day,Hour,Minute,Value (Times are PST for temperature in C)
2020,09,14,00,00,11.80
2020,09,14,00,01,11.80
2020,09,14,00,02,11.80
2020,09,14,00,03,11.80
2020,09,14,00,04,11.80
2020,09,14,00,05,11.80
2020,09,14,00,06,11.80
2020,09,14,00,07,11.80
2020,09,14,00,08,11.80
2020,09,14,00,09,11.90
2020,09,14,00,10,11.90
2020,09,14,00,11,11.90
2020,09,14,00,12,11.90
2020,09,14,00,13,11.90
2020,09,14,00,14,11.90
2020,09,14,00,15,11.90
2020,09,14,00,16,11.90
2020,09,14,00,17,11.90
2020,09,14,00,18,11.90
2020,09,14,00,19,11.90
2020,09,14,00,20,11.90
2020,09,14,00,21,12.00
2020,09,14,00,22,12.00
2020,09,14,00,23,12.00
2020,09,14,00,24,12.00
2020,09,14,00,25,12.00
2020,09,14,00,26,12.00
2020,09,14,00,27,12.00
2020,09,14,00,28,12.00
2020,09,14,00,29,12.00
2020,09,14,00,30,12.00
2020,09,14,00,31,12.00
2020,09,14,00,32,12.00
2020,09,14,00,33,12.00
2020,09,14,00,34,12.00
2020,09,14,00,35,12.00
2020,09,14,00,36,12.10
2020,09,14,00,37,12.00
2020,09,14,00,38,12.10
2020,09,14,00,39,12.10
2020,09,14,00,40,12.10
2020,09,14,00,41,12.10
2020,09,14,00,42,12.10
2020,09,14,00,43,12.10
2020,09,14,00,44,12.10
2020,09,14,00,45,12.10
2020,09,14,00,46,12.10
2020,09,14,00,47,12.10
2020,09,14,00,48,12.10
2020,09,14,00,49,12.10
2020,09,14,00,50,12.10
2020,09,14,00,51,12.10
2020,09,14,00,52,12.10
2020,09,14,00,53,12.10
2020,09,14,00,54,12.10
2020,09,14,00,55,12.10
2020,09,14,00,56,12.10
2020,09,14,00,57,12.10
2020,09,14,00,58,12.10
2020,09,14,00,59,12.10
2020,09,14,01,00,12.10
2020,09,14,01,01,12.10
2020,09,14,01,02,12.10
2020,09,14,01,03,12.10
2020,09,14,01,04,12.10
2020,09,14,01,05,12.10
2020,09,14,01,06,12.10
2020,09,14,01,07,12.10
2020,09,14,01,08,12.10
2020,09,14,01,09,12.10
2020,09,14,01,10,12.20
2020,09,14,01,11,12.20
2020,09,14,01,12,12.20
2020,09,14,01,13,12.20
2020,09,14,01,14,12.20
2020,09,14,01,15,12.20
2020,09,14,01,16,12.20
2020,09,14,01,17,12.20
2020,09,14,01,18,12.20
2020,09,14,01,19,12.10
2020,09,14,01,20,12.20
2020,09,14,01,21,12.10
2020,09,14,01,22,12.10
2020,09,14,01,23,12.10
2020,09,14,01,24,12.10
2020,09,14,01,25,12.10
2020,09,14,01,26,12.10
2020,09,14,01,27,12.10
2020,09,14,01,28,12.10
2020,09,14,01,29,12.10
2020,09,14,01,30,12.10
2020,09,14,01,31,12.00
2020,09,14,01,32,12.00
2020,09,14,01,33,12.00
2020,09,14,01,34,12.00
2020,09,14,01,35,12.00
2020,09,14,01,36,12.00
2020,09,14,01,37,11.90
2020,09,14,01,38,11.90
2020,09,14,01,39,11.90
2020,09,14,01,40,11.90
2020,09,14,01,41,11.90
2020,09,14,01,42,11.90
2020,09,14,01,43,11.80
2020,09,14,01,44,11.80
2020,09,14,01,45,11.80
2020,09,14,01,46,11.80
2020,09,14,01,47,11.80
2020,09,14,01,48,11.80
2020,09,14,01,49,11.80
2020,09,14,01,50,11.80
2020,09,14,01,51,11.70
2020,09,14,01,52,11.70
2020,09,14,01,53,11.70
2020,09,14,01,54,11.70
2020,09,14,01,55,11.70
2020,09,14,01,56,11.70
2020,09,14,01,57,11.60
2020,09,14,01,58,11.60
2020,09,14,01,59,11.60
2020,09,14,02,00,11.60
2020,09,14,02,01,11.60
2020,09,14,02,02,11.60
2020,09,14,02,03,11.60
2020,09,14,02,04,11.50
2020,09,14,02,05,11.50
2020,09,14,02,06,11.50
2020,09,14,02,07,11.50
2020,09,14,02,08,11.40
2020,09,14,02,09,11.40
2020,09,14,02,10,11.40
2020,09,14,02,11,11.40
2020,09,14,02,12,11.40
2020,09,14,02,13,11.40
2020,09,14,02,14,11.40
2020,09,14,02,15,11.40
2020,09,14,02,16,11.30
2020,09,14,02,17,11.30
2020,09,14,02,18,11.30
2020,09,14,02,19,11.30
2020,09,14,02,20,11.30
2020,09,14,02,21,11.30
2020,09,14,02,22,11.30
2020,09,14,02,23,11.30
2020,09,14,02,24,11.20
2020,09,14,02,25,11.20
2020,09,14,02,26,11.20
2020,09,14,02,27,11.20
2020,09,14,02,28,11.20
2020,09,14,02,29,11.20
2020,09,14,02,30,11.10
2020,09,14,02,31,11.10
2020,09,14,02,32,11.10
2020,09,14,02,33,11.10
2020,09,14,02,34,11.10
2020,09,14,02,35,11.10
2020,09,14,02,36,11.10
2020,09,14,02,37,11.10
2020,09,14,02,38,11.10
2020,09,14,02,39,11.10
2020,09,14,02,40,11.00
2020,09,14,02,41,11.00
2020,09,14,02,42,11.00
2020,09,14,02,43,11.00
2020,09,14,02,44,11.00
2020,09,14,02,45,11.00
2020,09,14,02,46,11.00
2020,09,14,02,47,11.00
2020,09,14,02,48,11.00
2020,09,14,02,49,11.00
2020,09,14,02,50,10.90
2020,09,14,02,51,10.90
2020,09,14,02,52,10.90
2020,09,14,02,53,10.90
2020,09,14,02,54,10.90
2020,09,14,02,55,10.90
2020,09,14,02,56,10.90
2020,09,14,02,57,10.90
2020,09,14,02,58,10.90
2020,09,14,02,59,10.90
2020,09,14,03,00,10.90
2020,09,14,03,01,10.80
2020,09,14,03,02,10.80
2020,09,14,03,03,10.80
2020,09,14,03,04,10.80
2020,09,14,03,05,10.80
2020,09,14,03,06,10.80
2020,09,14,03,07,10.80
2020,09,14,03,08,10.80
2020,09,14,03,09,10.80
2020,09,14,03,10,10.80
2020,09,14,03,11,10.80
2020,09,14,03,12,10.80
2020,09,14,03,13,10.80
2020,09,14,03,14,10.80
2020,09,14,03,15,10.80
2020,09,14,03,16,10.70
2020,09,14,03,17,10.70
2020,09,14,03,18,10.70
2020,09,14,03,19,10.70
2020,09,14,03,20,10.70
2020,09,14,03,21,10.70
2020,09,14,03,22,10.70
2020,09,14,03,23,10.70
2020,09,14,03,24,10.70
2020,09,14,03,25,10.70
2020,09,14,03,26,10.70
2020,09,14,03,27,10.70
2020,09,14,03,28,10.70
2020,09,14,03,29,10.70
2020,09,14,03,30,10.70
2020,09,14,03,31,10.70
2020,09,14,03,32,10.70
2020,09,14,03,33,10.60
2020,09,14,03,34,10.60
2020,09,14,03,35,10.60
2020,09,14,03,36,10.60
2020,09,14,03,37,10.60
2020,09,14,03,38,10.60
2020,09,14,03,39,10.60
2020,09,14,03,40,10.60
2020,09,14,03,41,10.60
2020,09,14,03,42,10.60
2020,09,14,03,43,10.60
2020,09,14,03,44,10.60
2020,09,14,03,45,10.60
2020,09,14,03,46,10.60
2020,09,14,03,47,10.60
2020,09,14,03,48,10.60
2020,09,14,03,49,10.60
2020,09,14,03,50,10.60
2020,09,14,03,51,10.60
2020,09,14,03,52,10.60
2020,09,14,03,53,10.60
2020,09,14,03,54,10.60
2020,09,14,03,55,10.60
2020,09,14,03,56,10.60
2020,09,14,03,57,10.60
2020,09,14,03,58,10.60
2020,09,14,03,59,10.50
2020,09,14,04,00,10.50
2020,09,14,04,01,10.50
2020,09,14,04,02,10.50
2020,09,14,04,03,10.50
2020,09,14,04,04,10.50
2020,09,14,04,05,10.50
2020,09,14,04,06,10.50
2020,09,14,04,07,10.50
2020,09,14,04,08,10.50
2020,09,14,04,09,10.50
2020,09,14,04,10,10.50
2020,09,14,04,11,10.50
2020,09,14,04,12,10.50
2020,09,14,04,13,10.40
2020,09,14,04,14,10.40
2020,09,14,04,15,10.40
2020,09,14,04,16,10.40
2020,09,14,04,17,10.40
2020,09,14,04,18,10.40
2020,09,14,04,19,10.40
2020,09,14,04,20,10.40
2020,09,14,04,21,10.40
2020,09,14,04,22,10.40
2020,09,14,04,23,10.40
2020,09,14,04,24,10.40
2020,09,14,04,25,10.40
2020,09,14,04,26,10.40
2020,09,14,04,27,10.40
2020,09,14,04,28,10.40
2020,09,14,04,29,10.30
2020,09,14,04,30,10.30
2020,09,14,04,31,10.30
2020,09,14,04,32,10.30
2020,09,14,04,33,10.30
2020,09,14,04,34,10.30
2020,09,14,04,35,10.30
2020,09,14,04,36,10.30
2020,09,14,04,37,10.30
2020,09,14,04,38,10.30
2020,09,14,04,39,10.30
2020,09,14,04,40,10.30
2020,09,14,04,41,10.30
2020,09,14,04,42,10.30
2020,09,14,04,43,10.30
2020,09,14,04,44,10.30
2020,09,14,04,45,10.30
2020,09,14,04,46,10.30
2020,09,14,04,47,10.30
2020,09,14,04,48,10.30
2020,09,14,04,49,10.30
2020,09,14,04,50,10.30
2020,09,14,04,51,10.30
2020,09,14,04,52,10.30
2020,09,14,04,53,10.30
2020,09,14,04,54,10.30
2020,09,14,04,55,10.30
2020,09,14,04,56,10.30
2020,09,14,04,57,10.30
2020,09,14,04,58,10.30
2020,09,14,04,59,10.30
2020,09,14,05,00,10.30
2020,09,14,05,01,10.30
2020,09,14,05,02,10.30
2020,09,14,05,03,10.30
2020,09,14,05,04,10.20
2020,09,14,05,05,10.20
2020,09,14,05,06,10.20
2020,09,14,05,07,10.20
2020,09,14,05,08,10.20
2020,09,14,05,09,10.20
2020,09,14,05,10,10.20
2020,09,14,05,11,10.20
2020,09,14,05,12,10.20
2020,09,14,05,13,10.20
2020,09,14,05,14,10.20
2020,09,14,05,15,10.20
2020,09,14,05,16,10.20
2020,09,14,05,17,10.20
2020,09,14,05,18,10.20
2020,09,14,05,19,10.20
2020,09,14,05,20,10.20
2020,09,14,05,21,10.20
2020,09,14,05,22,10.20
2020,09,14,05,23,10.20
2020,09,14,05,24,10.20
2020,09,14,05,25,10.20
2020,09,14,05,26,10.20
2020,09,14,05,27,10.20
2020,09,14,05,28,10.20
2020,09,14,05,29,10.20
2020,09,14,05,30,10.20
2020,09,14,05,31,10.20
2020,09,14,05,32,10.20
2020,09,14,05,33,10.20
2020,09,14,05,34,10.20
2020,09,14,05,35,10.20
2020,09,14,05,36,10.20
2020,09,14,05,37,10.20
2020,09,14,05,38,10.20
2020,09,14,05,39,10.20
2020,09,14,05,40,10.20
2020,09,14,05,41,10.30
2020,09,14,05,42,10.30
2020,09,14,05,43,10.30
2020,09,14,05,44,10.30
2020,09,14,05,45,10.30
2020,09,14,05,46,10.30
2020,09,14,05,47,10.30
2020,09,14,05,48,10.30
2020,09,14,05,49,10.30
2020,09,14,05,50,10.30
2020,09,14,05,51,10.30
2020,09,14,05,52,10.30
2020,09,14,05,53,10.30
2020,09,14,05,54,10.30
2020,09,14,05,55,10.30
2020,09,14,05,56,10.30
2020,09,14,05,57,10.30
2020,09,14,05,58,10.40
2020,09,14,05,59,10.40
2020,09,14,06,00,10.40
2020,09,14,06,01,10.40
2020,09,14,06,02,10.40
2020,09,14,06,03,10.40
2020,09,14,06,04,10.30
2020,09,14,06,05,10.30
2020,09,14,06,06,10.30
2020,09,14,06,07,10.30
2020,09,14,06,08,10.30
2020,09,14,06,09,10.30
2020,09,14,06,10,10.30
2020,09,14,06,11,10.30
2020,09,14,06,12,10.30
2020,09,14,06,13,10.30
2020,09,14,06,14,10.30
2020,09,14,06,15,10.30
2020,09,14,06,16,10.20
2020,09,14,06,17,10.20
2020,09,14,06,18,10.20
2020,09,14,06,19,10.20
2020,09,14,06,20,10.20
2020,09,14,06,21,10.20
2020,09,14,06,22,10.20
2020,09,14,06,23,10.20
2020,09,14,06,24,10.20
2020,09,14,06,25,10.20
2020,09,14,06,26,10.20
2020,09,14,06,27,10.20
2020,09,14,06,28,10.10
2020,09,14,06,29,10.10
2020,09,14,06,30,10.10
2020,09,14,06,31,10.10
2020,09,14,06,32,10.10
2020,09,14,06,33,10.10
2020,09,14,06,34,10.10
2020,09,14,06,35,10.10
2020,09,14,06,36,10.10
2020,09,14,06,37,10.10
2020,09,14,06,38,10.00
2020,09,14,06,39,10.00
2020,09,14,06,40,10.00
2020,09,14,06,41,10.00
2020,09,14,06,42,10.00
2020,09,14,06,43,10.00
2020,09,14,06,44,9.90
2020,09,14,06,45,9.90
2020,09,14,06,46,9.90
2020,09,14,06,47,9.90
2020,09,14,06,48,9.90
2020,09,14,06,49,9.90
2020,09,14,06,50,9.90
2020,09,14,06,51,9.90
2020,09,14,06,52,9.90
2020,09,14,06,53,9.90
2020,09,14,06,54,9.90
2020,09,14,06,55,9.90
2020,09,14,06,56,9.80
2020,09,14,06,57,9.80
2020,09,14,06,58,9.80
2020,09,14,06,59,9.80
2020,09,14,07,00,9.80
2020,09,14,07,01,9.80
2020,09,14,07,02,9.80
2020,09,14,07,03,9.80
2020,09,14,07,04,9.80
2020,09,14,07,05,9.80
2020,09,14,07,06,9.80
2020,09,14,07,07,9.80
2020,09,14,07,08,9.80
2020,09,14,07,09,9.80
2020,09,14,07,10,9.80
2020,09,14,07,11,9.80
2020,09,14,07,12,9.80
2020,09,14,07,13,9.80
2020,09,14,07,14,9.80
2020,09,14,07,15,9.80
2020,09,14,07,16,9.70
2020,09,14,07,17,9.70
2020,09,14,07,18,9.80
2020,09,14,07,19,9.80
2020,09,14,07,20,9.80
2020,09,14,07,21,9.80
2020,09,14,07,22,9.80
2020,09,14,07,23,9.80
2020,09,14,07,24,9.80
2020,09,14,07,25,9.80
2020,09,14,07,26,9.80
2020,09,14,07,27,9.80
2020,09,14,07,28,9.80
2020,09,14,07,29,9.80
2020,09,14,07,30,9.80
2020,09,14,07,31,9.80
2020,09,14,07,32,9.80
2020,09,14,07,33,9.80
2020,09,14,07,34,9.80
2020,09,14,07,35,9.90
2020,09,14,07,36,9.90
2020,09,14,07,37,9.90
2020,09,14,07,38,9.90
2020,09,14,07,39,9.90
2020,09,14,07,40,9.90
2020,09,14,07,41,9.90
2020,09,14,07,42,9.90
2020,09,14,07,43,9.90
2020,09,14,07,44,9.90
2020,09,14,07,45,9.90
2020,09,14,07,46,9.90
2020,09,14,07,47,9.90
2020,09,14,07,48,10.00
2020,09,14,07,49,10.00
2020,09,14,07,50,10.00
2020,09,14,07,51,10.10
2020,09,14,07,52,10.10
2020,09,14,07,53,10.20
2020,09,14,07,54,10.20
2020,09,14,07,55,10.20
2020,09,14,07,56,10.20
2020,09,14,07,57,10.20
2020,09,14,07,58,10.30
2020,09,14,07,59,10.30
2020,09,14,08,00,10.30
2020,09,14,08,01,10.30
2020,09,14,08,02,10.30
2020,09,14,08,03,10.40
2020,09,14,08,04,10.40
2020,09,14,08,05,10.40
2020,09,14,08,06,10.40
2020,09,14,08,07,10.50
2020,09,14,08,08,10.50
2020,09,14,08,09,10.50
2020,09,14,08,10,10.60
2020,09,14,08,11,10.60
2020,09,14,08,12,10.60
2020,09,14,08,13,10.70
2020,09,14,08,14,10.70
2020,09,14,08,15,10.80
2020,09,14,08,16,10.80
2020,09,14,08,17,10.90
2020,09,14,08,18,10.90
2020,09,14,08,19,11.00
2020,09,14,08,20,11.10
2020,09,14,08,21,11.10
2020,09,14,08,22,11.20
2020,09,14,08,23,11.20
2020,09,14,08,24,11.30
2020,09,14,08,25,11.40
2020,09,14,08,26,11.50
2020,09,14,08,27,11.50
2020,09,14,08,28,11.60
2020,09,14,08,29,11.60
2020,09,14,08,30,11.70
2020,09,14,08,31,11.70
2020,09,14,08,32,11.70
2020,09,14,08,33,11.70
2020,09,14,08,34,11.70
2020,09,14,08,35,11.70
2020,09,14,08,36,11.70
2020,09,14,08,37,11.80
2020,09,14,08,38,11.80
2020,09,14,08,39,11.80
2020,09,14,08,40,11.80
2020,09,14,08,41,11.80
2020,09,14,08,42,11.90
2020,09,14,08,43,11.90
2020,09,14,08,44,11.90
2020,09,14,08,45,11.90
2020,09,14,08,46,11.90
2020,09,14,08,47,12.00
2020,09,14,08,48,12.00
2020,09,14,08,49,12.10
2020,09,14,08,50,12.10
2020,09,14,08,51,12.10
2020,09,14,08,52,12.10
2020,09,14,08,53,12.20
2020,09,14,08,54,12.20
2020,09,14,08,55,12.20
2020,09,14,08,56,12.20
2020,09,14,08,57,12.30
2020,09,14,08,58,12.30
2020,09,14,08,59,12.30
2020,09,14,09,00,12.30
2020,09,14,09,01,12.30
2020,09,14,09,02,12.30
2020,09,14,09,03,12.30
2020,09,14,09,04,12.30
2020,09,14,09,05,12.30
2020,09,14,09,06,12.30
2020,09,14,09,07,12.40
2020,09,14,09,08,12.40
2020,09,14,09,09,12.40
2020,09,14,09,10,12.40
2020,09,14,09,11,12.40
2020,09,14,09,12,12.40
2020,09,14,09,13,12.40
2020,09,14,09,14,12.40
2020,09,14,09,15,12.40
2020,09,14,09,16,12.40
2020,09,14,09,17,12.40
2020,09,14,09,18,12.40
2020,09,14,09,19,12.50
2020,09,14,09,20,12.50
2020,09,14,09,21,12.50
2020,09,14,09,22,12.60
2020,09,14,09,23,12.60
2020,09,14,09,24,12.60
2020,09,14,09,25,12.70
2020,09,14,09,26,12.70
2020,09,14,09,27,12.70
2020,09,14,09,28,12.80
2020,09,14,09,29,12.80
2020,09,14,09,30,12.80
2020,09,14,09,31,12.90
2020,09,14,09,32,12.90
2020,09,14,09,33,12.90
2020,09,14,09,34,12.90
2020,09,14,09,35,13.00
2020,09,14,09,36,13.00
2020,09,14,09,37,13.10
2020,09,14,09,38,13.10
2020,09,14,09,39,13.10
2020,09,14,09,40,13.10
2020,09,14,09,41,13.20
2020,09,14,09,42,13.20
2020,09,14,09,43,13.20
2020,09,14,09,44,13.30
2020,09,14,09,45,13.30
2020,09,14,09,46,13.30
2020,09,14,09,47,13.40
2020,09,14,09,48,13.40
2020,09,14,09,49,13.40
2020,09,14,09,50,13.50
2020,09,14,09,51,13.60
2020,09,14,09,52,13.60
2020,09,14,09,53,13.60
2020,09,14,09,54,13.70
2020,09,14,09,55,13.70
2020,09,14,09,56,13.70
2020,09,14,09,57,13.70
2020,09,14,09,58,13.70
2020,09,14,09,59,13.80
2020,09,14,10,00,13.80
2020,09,14,10,01,13.80
2020,09,14,10,02,13.80
2020,09,14,10,03,13.80
2020,09,14,10,04,13.80
2020,09,14,10,05,13.80
2020,09,14,10,06,13.90
2020,09,14,10,07,13.90
2020,09,14,10,08,13.90
2020,09,14,10,09,13.90
2020,09,14,10,10,13.90
2020,09,14,10,11,13.90
2020,09,14,10,12,13.90
2020,09,14,10,13,13.90
2020,09,14,10,14,14.00
2020,09,14,10,15,14.00
2020,09,14,10,16,14.00
2020,09,14,10,17,14.00
2020,09,14,10,18,14.00
2020,09,14,10,19,14.00
2020,09,14,10,20,14.00
2020,09,14,10,21,14.00
2020,09,14,10,22,14.00
2020,09,14,10,23,14.00
2020,09,14,10,24,14.00
2020,09,14,10,25,14.00
2020,09,14,10,26,13.90
2020,09,14,10,27,13.90
2020,09,14,10,28,13.90
2020,09,14,10,29,13.90
2020,09,14,10,30,13.90
2020,09,14,10,31,14.00
2020,09,14,10,32,14.00
2020,09,14,10,33,13.90
2020,09,14,10,34,13.90
2020,09,14,10,35,13.90
2020,09,14,10,36,13.90
2020,09,14,10,37,13.90
2020,09,14,10,38,13.90
2020,09,14,10,39,13.90
2020,09,14,10,40,13.90
2020,09,14,10,41,13.90
2020,09,14,10,42,13.90
2020,09,14,10,43,13.90
2020,09,14,10,44,13.90
2020,09,14,10,45,13.90
2020,09,14,10,46,13.90
2020,09,14,10,47,14.00
2020,09,14,10,48,14.00
2020,09,14,10,49,14.00
2020,09,14,10,50,14.10
2020,09,14,10,51,14.10
2020,09,14,10,52,14.10
2020,09,14,10,53,14.10
2020,09,14,10,54,14.10
2020,09,14,10,55,14.20
2020,09,14,10,56,14.20
2020,09,14,10,57,14.20
2020,09,14,10,58,14.30
2020,09,14,10,59,14.30
2020,09,14,11,00,14.30
2020,09,14,11,01,14.40
2020,09,14,11,02,14.40
2020,09,14,11,03,14.50
2020,09,14,11,04,14.50
2020,09,14,11,05,14.60
2020,09,14,11,06,14.70
2020,09,14,11,07,14.80
2020,09,14,11,08,14.80
2020,09,14,11,09,14.90
2020,09,14,11,10,15.00
2020,09,14,11,11,15.00
2020,09,14,11,12,15.00
2020,09,14,11,13,15.00
2020,09,14,11,14,15.10
2020,09,14,11,15,15.10
2020,09,14,11,16,15.20
2020,09,14,11,17,15.20
2020,09,14,11,18,15.30
2020,09,14,11,19,15.30
2020,09,14,11,20,15.30
2020,09,14,11,21,15.40
2020,09,14,11,22,15.40
2020,09,14,11,23,15.40
2020,09,14,11,24,15.40
2020,09,14,11,25,15.40
2020,09,14,11,26,15.40
2020,09,14,11,27,15.50
2020,09,14,11,28,15.50
2020,09,14,11,29,15.60
2020,09,14,11,30,15.60
2020,09,14,11,31,15.70
2020,09,14,11,32,15.70
2020,09,14,11,33,15.80
2020,09,14,11,34,15.80
2020,09,14,11,35,15.80
2020,09,14,11,36,15.80
2020,09,14,11,37,15.80
2020,09,14,11,38,15.80
2020,09,14,11,39,15.80
2020,09,14,11,40,15.80
2020,09,14,11,41,15.80
2020,09,14,11,42,15.80
2020,09,14,11,43,15.80
2020,09,14,11,44,15.80
2020,09,14,11,45,15.90
2020,09,14,11,46,15.90
2020,09,14,11,47,16.00
2020,09,14,11,48,16.00
2020,09,14,11,49,16.10
2020,09,14,11,50,16.10
2020,09,14,11,51,16.20
2020,09,14,11,52,16.20
2020,09,14,11,53,16.20
2020,09,14,11,54,16.30
2020,09,14,11,55,16.30
2020,09,14,11,56,16.30
2020,09,14,11,57,16.40
2020,09,14,11,58,16.40
2020,09,14,11,59,16.40
2020,09,14,12,00,16.40
2020,09,14,12,01,16.40
2020,09,14,12,02,16.40
2020,09,14,12,03,16.40
2020,09,14,12,04,16.40
2020,09,14,12,05,16.40
2020,09,14,12,06,16.40
2020,09,14,12,07,16.40
2020,09,14,12,08,16.40
2020,09,14,12,09,16.40
2020,09,14,12,10,16.40
2020,09,14,12,11,16.40
2020,09,14,12,12,16.40
2020,09,14,12,13,16.40
2020,09,14,12,14,16.40
2020,09,14,12,15,16.40
2020,09,14,12,16,16.40
2020,09,14,12,17,16.40
2020,09,14,12,18,16.40
2020,09,14,12,19,16.40
2020,09,14,12,20,16.30
2020,09,14,12,21,16.30
2020,09,14,12,22,16.30
2020,09,14,12,23,16.30
2020,09,14,12,24,16.30
2020,09,14,12,25,16.30
2020,09,14,12,26,16.30
2020,09,14,12,27,16.30
2020,09,14,12,28,16.30
2020,09,14,12,29,16.40
2020,09,14,12,30,16.40
2020,09,14,12,31,16.50
2020,09,14,12,32,16.50
2020,09,14,12,33,16.60
2020,09,14,12,34,16.60
2020,09,14,12,35,16.60
2020,09,14,12,36,16.60
2020,09,14,12,37,16.60
2020,09,14,12,38,16.60
2020,09,14,12,39,16.70
2020,09,14,12,40,16.70
2020,09,14,12,41,16.70
2020,09,14,12,42,16.70
2020,09,14,12,43,16.70
2020,09,14,12,44,16.80
2020,09,14,12,45,16.80
2020,09,14,12,46,16.80
2020,09,14,12,47,16.80
2020,09,14,12,48,16.80
2020,09,14,12,49,16.80
2020,09,14,12,50,16.90
2020,09,14,12,51,16.90
2020,09,14,12,52,16.90
2020,09,14,12,53,16.90
2020,09,14,12,54,16.80
2020,09,14,12,55,16.80
2020,09,14,12,56,16.80
2020,09,14,12,57,16.70
2020,09,14,12,58,16.70
2020,09,14,12,59,16.70
2020,09,14,13,00,16.70
2020,09,14,13,01,16.70
2020,09,14,13,02,16.70
2020,09,14,13,03,16.70
2020,09,14,13,04,16.70
2020,09,14,13,05,16.70
2020,09,14,13,06,16.80
2020,09,14,13,07,16.80
2020,09,14,13,08,16.80
2020,09,14,13,09,16.90
2020,09,14,13,10,16.90
2020,09,14,13,11,16.80
2020,09,14,13,12,16.80
2020,09,14,13,13,16.70
2020,09,14,13,14,16.60
2020,09,14,13,15,16.60
2020,09,14,13,16,16.50
2020,09,14,13,17,16.40
2020,09,14,13,18,16.30
2020,09,14,13,19,16.30
2020,09,14,13,20,16.20
2020,09,14,13,21,16.20
2020,09,14,13,22,16.20
2020,09,14,13,23,16.20
2020,09,14,13,24,16.20
2020,09,14,13,25,16.20
2020,09,14,13,26,16.20
2020,09,14,13,27,16.20
2020,09,14,13,28,16.20
2020,09,14,13,29,16.20
2020,09,14,13,30,16.20
2020,09,14,13,31,16.20
2020,09,14,13,32,16.20
2020,09,14,13,33,16.20
2020,09,14,13,34,16.30
2020,09,14,13,35,16.30
2020,09,14,13,36,16.30
2020,09,14,13,37,16.30
2020,09,14,13,38,16.30
2020,09,14,13,39,16.30
2020,09,14,13,40,16.30
2020,09,14,13,41,16.40
2020,09,14,13,42,16.40
2020,09,14,13,43,16.40
2020,09,14,13,44,16.40
2020,09,14,13,45,16.40
2020,09,14,13,46,16.30
2020,09,14,13,47,16.30
2020,09,14,13,48,16.30
2020,09,14,13,49,16.30
2020,09,14,13,50,16.30
2020,09,14,13,51,16.30
2020,09,14,13,52,16.30
2020,09,14,13,53,16.20
2020,09,14,13,54,16.20
2020,09,14,13,55,16.20
2020,09,14,13,56,16.30
2020,09,14,13,57,16.30
2020,09,14,13,58,16.30
2020,09,14,13,59,16.30
2020,09,14,14,00,16.30
2020,09,14,14,01,16.20
2020,09,14,14,02,16.20
2020,09,14,14,03,16.20
2020,09,14,14,04,16.20
2020,09,14,14,05,16.10
2020,09,14,14,06,16.10
2020,09,14,14,07,16.10
2020,09,14,14,08,16.10
2020,09,14,14,09,16.10
2020,09,14,14,10,16.00
2020,09,14,14,11,16.00
2020,09,14,14,12,16.00
2020,09,14,14,13,16.00
2020,09,14,14,14,16.00
2020,09,14,14,15,15.90
2020,09,14,14,16,15.90
2020,09,14,14,17,16.00
2020,09,14,14,18,16.00
2020,09,14,14,19,16.00
2020,09,14,14,20,16.00
2020,09,14,14,21,16.00
2020,09,14,14,22,16.00
2020,09,14,14,23,16.10
2020,09,14,14,24,16.10
2020,09,14,14,25,16.10
2020,09,14,14,26,16.10
2020,09,14,14,27,16.10
2020,09,14,14,28,16.10
2020,09,14,14,29,16.20
2020,09,14,14,30,16.20
2020,09,14,14,31,16.20
2020,09,14,14,32,16.30
2020,09,14,14,33,16.30
2020,09,14,14,34,16.30
2020,09,14,14,35,16.30
2020,09,14,14,36,16.30
2020,09,14,14,37,16.40
2020,09,14,14,38,16.40
2020,09,14,14,39,16.40
2020,09,14,14,40,16.40
2020,09,14,14,41,16.40
2020,09,14,14,42,16.40
2020,09,14,14,43,16.40
2020,09,14,14,44,16.30
2020,09,14,14,45,16.30
2020,09,14,14,46,16.30
2020,09,14,14,47,16.20
2020,09,14,14,48,16.20
2020,09,14,14,49,16.10
2020,09,14,14,50,16.10
2020,09,14,14,51,16.00
2020,09,14,14,52,15.90
2020,09,14,14,53,15.90
2020,09,14,14,54,15.90
2020,09,14,14,55,15.80
2020,09,14,14,56,15.80
2020,09,14,14,57,15.80
2020,09,14,14,58,15.80
2020,09,14,14,59,15.80
2020,09,14,15,00,15.80
2020,09,14,15,01,15.80
2020,09,14,15,02,15.80
2020,09,14,15,03,15.80
2020,09,14,15,04,15.80
2020,09,14,15,05,15.80
2020,09,14,15,06,15.80
2020,09,14,15,07,15.80
2020,09,14,15,08,15.80
2020,09,14,15,09,15.80
2020,09,14,15,10,15.80
2020,09,14,15,11,15.80
2020,09,14,15,12,15.80
2020,09,14,15,13,15.80
2020,09,14,15,14,15.80
2020,09,14,15,15,15.80
2020,09,14,15,16,15.80
2020,09,14,15,17,15.80
2020,09,14,15,18,15.80
2020,09,14,15,19,15.90
2020,09,14,15,20,15.90
2020,09,14,15,21,15.90
2020,09,14,15,22,15.90
2020,09,14,15,23,16.00
2020,09,14,15,24,16.00
2020,09,14,15,25,16.00
2020,09,14,15,26,16.00
2020,09,14,15,27,16.00
2020,09,14,15,28,16.00
2020,09,14,15,29,16.00
2020,09,14,15,30,16.00
2020,09,14,15,31,15.90
2020,09,14,15,32,15.90
2020,09,14,15,33,15.90
2020,09,14,15,34,15.90
2020,09,14,15,35,15.90
2020,09,14,15,36,15.90
2020,09,14,15,37,15.90
2020,09,14,15,38,15.90
2020,09,14,15,39,16.00
2020,09,14,15,40,16.00
2020,09,14,15,41,16.00
2020,09,14,15,42,16.10
2020,09,14,15,43,16.10
2020,09,14,15,44,16.10
2020,09,14,15,45,16.20
2020,09,14,15,46,16.20
2020,09,14,15,47,16.20
2020,09,14,15,48,16.20
2020,09,14,15,49,16.20
2020,09,14,15,50,16.30
2020,09,14,15,51,16.30
2020,09,14,15,52,16.30
2020,09,14,15,53,16.30
2020,09,14,15,54,16.30
2020,09,14,15,55,16.30
2020,09,14,15,56,16.30
2020,09,14,15,57,16.30
2020,09,14,15,58,16.30
2020,09,14,15,59,16.30
2020,09,14,16,00,16.40
2020,09,14,16,01,16.40
2020,09,14,16,02,16.40
2020,09,14,16,03,16.40
2020,09,14,16,04,16.40
2020,09,14,16,05,16.40
2020,09,14,16,06,16.40
2020,09,14,16,07,16.40
2020,09,14,16,08,16.40
2020,09,14,16,09,16.40
2020,09,14,16,10,16.40
2020,09,14,16,11,16.40
2020,09,14,16,12,16.40
2020,09,14,16,13,16.40
2020,09,14,16,14,16.40
2020,09,14,16,15,16.40
2020,09,14,16,16,16.40
2020,09,14,16,17,16.40
2020,09,14,16,18,16.40
2020,09,14,16,19,16.40
2020,09,14,16,20,16.40
2020,09,14,16,21,16.40
2020,09,14,16,22,16.40
2020,09,14,16,23,16.40
2020,09,14,16,24,16.30
2020,09,14,16,25,16.30
2020,09,14,16,26,16.20
2020,09,14,16,27,16.10
2020,09,14,16,28,16.10
2020,09,14,16,29,16.10
2020,09,14,16,30,16.00
2020,09,14,16,31,16.00
2020,09,14,16,32,15.90
2020,09,14,16,33,15.80
2020,09,14,16,34,15.80
2020,09,14,16,35,15.70
2020,09,14,16,36,15.70
2020,09,14,16,37,15.60
2020,09,14,16,38,15.60
2020,09,14,16,39,15.50
2020,09,14,16,40,15.40
2020,09,14,16,41,15.30
2020,09,14,16,42,15.20
2020,09,14,16,43,15.10
2020,09,14,16,44,15.00
2020,09,14,16,45,15.00
2020,09,14,16,46,15.00
2020,09,14,16,47,15.00
2020,09,14,16,48,15.00
2020,09,14,16,49,15.00
2020,09,14,16,50,15.00
2020,09,14,16,51,14.90
2020,09,14,16,52,14.90
2020,09,14,16,53,14.80
2020,09,14,16,54,14.80
2020,09,14,16,55,14.80
2020,09,14,16,56,14.80
2020,09,14,16,57,14.70
2020,09,14,16,58,14.70
2020,09,14,16,59,14.70
2020,09,14,17,00,14.70
2020,09,14,17,01,14.60
2020,09,14,17,02,14.60
2020,09,14,17,03,14.60
2020,09,14,17,04,14.60
2020,09,14,17,05,14.60
2020,09,14,17,06,14.60
2020,09,14,17,07,14.60
2020,09,14,17,08,14.60
2020,09,14,17,09,14.60
2020,09,14,17,10,14.60
2020,09,14,17,11,14.60
2020,09,14,17,12,14.60
2020,09,14,17,13,14.60
2020,09,14,17,14,14.60
2020,09,14,17,15,14.60
2020,09,14,17,16,14.60
2020,09,14,17,17,14.60
2020,09,14,17,18,14.60
2020,09,14,17,19,14.50
2020,09,14,17,20,14.50
2020,09,14,17,21,14.50
2020,09,14,17,22,14.50